Location: Bydgoszcz
(53.1222°N, 17.9945°E)
Time: 13:10:56
(UTC+01:00)

ISS - Visible Passes

Search period start: 21 November 2017 00:00
Search period end: 01 December 2017 00:00
Orbit: 402 x 407 km, 51.6° (Epoch: 21 November)

Date Brightness Start Highest point End Pass type
(mag) Time Alt. Az. Time Alt. Az. Time Alt. Az.
28 Nov -1.0 18:17:35 10° SSW 18:17:53 11° S 18:17:53 11° S visible
29 Nov -1.5 17:26:21 10° SSE 17:27:47 13° SE 17:27:47 13° SE visible
30 Nov -1.9 18:08:31 10° SW 18:10:17 23° SSW 18:10:17 23° SSW visible
